Corpus Christi, TX

1:32 AM CDT on April 27, 2017 (GMT -0500)
Corpus Christi International

Weather History for KCRP - November, 2011

Change the Weather History Date:

Friday, November 18, 2011

  Actual Average Record
Temperature  
Mean Temperature 68 °F 65 °F  
Max Temperature 80 °F 75 °F 88 °F (1948)
Min Temperature 55 °F 55 °F 30 °F (1959)
Degree Days  
Heating Degree Days 0 3  
Month to date heating degree days 32 36  
Since 1 July heating degree days 44 46  
Cooling Degree Days 3 4  
Month to date cooling degree days 105 90  
Year to date cooling degree days 4014 3441  
Growing Degree Days 18 (Base 50)    
Moisture  
Dew Point 57 °F    
Average Humidity 64    
Maximum Humidity 83    
Minimum Humidity 45    
Precipitation  
Precipitation 0.00 in 0.06 in 1.02 in (2016)
Month to date precipitation 0.34 1.35  
Year to date precipitation 10.88 29.31  
Snow  
Snow 0.00 in - - ()
Month to date snowfall 0.0  
Since 1 July snowfall 0.0  
Since 1 September snowfall 0.0  
Snow Depth 0.00 in    
Sea Level Pressure  
Sea Level Pressure 30.08 in    
Wind  
Wind Speed 13 mph (ESE)    
Max Wind Speed 25 mph    
Max Gust Speed 30 mph    
Visibility 10 miles    
Events      
T = Trace of Precipitation, MM = Missing Value Source: NWS Daily Summary

Daily Weather History Graph

Daily Weather History Graph

Search for Another Location

Airport or City:

Trip Planner

Search our weather history database for the weather conditions in past years. The results will help you decide how hot, cold, wet, or windy it might be!

Date:

Astronomy

Nov. 18, 2011 Rise Set
Actual Time 6:53 AM CST 5:36 PM CST
Civil Twilight 6:28 AM CST 6:01 PM CST
Nautical Twilight 6:00 AM CST 6:29 PM CST
Astronomical Twilight 5:32 AM CST 6:57 PM CST
Moon No Moon Rise 12:49 PM CST (11/18)
Length of Visible Light 11h 33m
Length of Day
10h 43m
Waning Gibbous, 49% of the Moon is Illuminated
Nov 18
Waning Gibbous
Nov 25
New
Dec 2
First Quarter
Dec 10
Full
Dec 17
Last Quarter

Hourly Weather History & Observations

Time (CST) Temp. Heat Index Dew Point Humidity Pressure Visibility Wind Dir Wind Speed Gust Speed Precip Events Conditions
12:51 AM 60.1 °F - 50.0 °F 69% 30.23 in 10.0 mi East 4.6 mph - N/A   Partly Cloudy
1:51 AM 57.0 °F - 50.0 °F 77% 30.20 in 10.0 mi NE 5.8 mph - N/A   Partly Cloudy
2:51 AM 55.0 °F - 48.0 °F 77% 30.18 in 10.0 mi NNE 6.9 mph - N/A   Partly Cloudy
3:51 AM 55.9 °F - 48.9 °F 77% 30.17 in 10.0 mi NNE 9.2 mph - N/A   Partly Cloudy
4:51 AM 55.0 °F - 48.0 °F 77% 30.15 in 10.0 mi NNE 9.2 mph - N/A   Partly Cloudy
5:51 AM 57.0 °F - 48.9 °F 74% 30.15 in 10.0 mi NNE 10.4 mph - N/A   Partly Cloudy
6:51 AM 55.9 °F - 50.0 °F 80% 30.16 in 10.0 mi NNE 9.2 mph - N/A   Partly Cloudy
7:51 AM 59.0 °F - 50.0 °F 72% 30.16 in 10.0 mi NNE 9.2 mph - N/A   Partly Cloudy
8:51 AM 64.9 °F - 54.0 °F 68% 30.16 in 10.0 mi NE 8.1 mph - N/A   Clear
9:51 AM 72.0 °F - 55.9 °F 57% 30.15 in 10.0 mi NE 4.6 mph - N/A   Scattered Clouds
10:51 AM 78.1 °F - 57.9 °F 50% 30.13 in 10.0 mi SE 21.9 mph - N/A   Scattered Clouds
11:51 AM 80.1 °F 80.6 °F 57.9 °F 47% 30.10 in 10.0 mi SE 17.3 mph - N/A   Mostly Cloudy
12:51 PM 78.1 °F - 60.1 °F 54% 30.06 in 10.0 mi SE 18.4 mph - N/A   Mostly Cloudy
1:51 PM 77.0 °F - 62.1 °F 60% 30.03 in 10.0 mi SE 21.9 mph - N/A   Mostly Cloudy
2:51 PM 77.0 °F - 61.0 °F 58% 30.01 in 10.0 mi SE 23.0 mph - N/A   Mostly Cloudy
3:51 PM 77.0 °F - 62.1 °F 60% 29.99 in 10.0 mi SE 23.0 mph - N/A   Mostly Cloudy
4:51 PM 75.9 °F - 62.1 °F 62% 29.99 in 10.0 mi SE 24.2 mph 27.6 mph N/A   Mostly Cloudy
5:51 PM 73.9 °F - 63.0 °F 68% 29.99 in 10.0 mi SE 17.3 mph - N/A   Scattered Clouds
6:51 PM 73.9 °F - 64.0 °F 71% 29.99 in 10.0 mi SE 15.0 mph - N/A   Overcast
7:51 PM 73.9 °F - 64.0 °F 71% 30.00 in 10.0 mi SSE 12.7 mph - N/A   Overcast
8:51 PM 73.0 °F - 64.9 °F 76% 29.99 in 10.0 mi SSE 12.7 mph - N/A   Mostly Cloudy
9:51 PM 72.0 °F - 64.0 °F 76% 29.99 in 10.0 mi SSE 10.4 mph - N/A   Partly Cloudy
10:51 PM 71.1 °F - 64.9 °F 81% 29.99 in 10.0 mi SSE 9.2 mph - N/A   Partly Cloudy
11:51 PM 70.0 °F - 64.9 °F 84% 29.98 in 10.0 mi SSE 9.2 mph - N/A   Partly Cloudy